ITY5RJ LIEE-LIRF

Flight info

Callsign ITY5RJ
Flight time 0h 44m
Altitude 18000
Route KOVAS Q125 DEXUL DCT ABIDU DCT TINTO DCT VALMA
Aircraft A320/M-SDE3FGHIRWY/LB1

Departure

Time 2026-05-07 15:19
Airport Cagliari Elmas Airport (LIEE)

Arrival

Time 2026-05-07 16:03
Airport Rome–Fiumicino Leonardo da Vinci International Airport (LIRF)
Time Latitude Longitude Altitude Speed Heading
2026-05-07 14:56 39.25234 9.05949 15 ft 0 kts 323°
2026-05-07 15:10 39.25229 9.05954 15 ft 4 kts 322°
2026-05-07 15:10 39.25210 9.05977 16 ft 4 kts 305°
2026-05-07 15:11 39.25199 9.06007 17 ft 4 kts 265°
2026-05-07 15:11 39.25203 9.06023 16 ft 0 kts 233°
2026-05-07 15:13 39.25190 9.06001 18 ft 4 kts 233°
2026-05-07 15:14 39.25174 9.05975 15 ft 3 kts 232°
2026-05-07 15:14 39.25158 9.05948 15 ft 6 kts 232°
2026-05-07 15:14 39.25149 9.05887 15 ft 7 kts 296°
2026-05-07 15:14 39.25146 9.05826 15 ft 10 kts 237°
2026-05-07 15:15 39.25126 9.05727 15 ft 11 kts 300°
2026-05-07 15:15 39.25185 9.05659 15 ft 13 kts 318°
2026-05-07 15:15 39.25266 9.05565 15 ft 18 kts 318°
2026-05-07 15:15 39.25369 9.05446 15 ft 21 kts 318°
2026-05-07 15:16 39.25475 9.05323 15 ft 20 kts 318°
2026-05-07 15:16 39.25585 9.05196 15 ft 24 kts 318°
2026-05-07 15:16 39.25725 9.05034 15 ft 29 kts 318°
2026-05-07 15:16 39.25878 9.04856 15 ft 30 kts 317°
2026-05-07 15:17 39.26036 9.04674 15 ft 24 kts 319°
2026-05-07 15:17 39.26109 9.04587 15 ft 11 kts 308°
2026-05-07 15:17 39.26123 9.04502 15 ft 9 kts 275°
2026-05-07 15:17 39.26116 9.04429 15 ft 7 kts 246°
2026-05-07 15:18 39.26082 9.04385 15 ft 7 kts 214°
2026-05-07 15:18 39.26056 9.04378 14 ft 3 kts 162°
2026-05-07 15:18 39.26034 9.04402 15 ft 8 kts 137°
2026-05-07 15:18 39.25887 9.04573 15 ft 62 kts 138°
2026-05-07 15:19 39.25402 9.05134 15 ft 123 kts 138°
2026-05-07 15:19 39.24638 9.06018 102 ft 162 kts 138°
2026-05-07 15:19 39.23803 9.06988 775 ft 163 kts 140°
2026-05-07 15:19 39.22941 9.07969 1393 ft 171 kts 136°
2026-05-07 15:20 39.22003 9.09050 1756 ft 192 kts 137°
2026-05-07 15:20 39.20950 9.10279 2123 ft 215 kts 133°
2026-05-07 15:20 39.19826 9.11591 2937 ft 219 kts 134°
2026-05-07 15:20 39.18538 9.12673 3738 ft 231 kts 161°
2026-05-07 15:21 39.16917 9.12557 4543 ft 245 kts 200°
2026-05-07 15:21 39.15522 9.11258 5413 ft 251 kts 223°
2026-05-07 15:21 39.14377 9.09540 6276 ft 254 kts 231°
2026-05-07 15:21 39.13657 9.07466 7037 ft 261 kts 261°
2026-05-07 15:22 39.13812 9.05118 7724 ft 270 kts 288°
2026-05-07 15:22 39.14809 9.02984 8153 ft 289 kts 316°
2026-05-07 15:22 39.16316 9.01189 8770 ft 300 kts 318°
2026-05-07 15:22 39.17884 8.99374 9596 ft 304 kts 317°
2026-05-07 15:23 39.19464 8.97556 10420 ft 307 kts 316°
2026-05-07 15:23 39.21064 8.95717 11194 ft 310 kts 316°
2026-05-07 15:23 39.22855 8.94138 11970 ft 316 kts 330°
2026-05-07 15:23 39.24935 8.93146 12627 ft 327 kts 345°
2026-05-07 15:24 39.27280 8.92795 12783 ft 352 kts 356°
2026-05-07 15:24 39.29776 8.92627 13196 ft 365 kts 356°
2026-05-07 15:24 39.32328 8.92459 13844 ft 370 kts 355°
2026-05-07 15:24 39.34916 8.92289 14469 ft 374 kts 355°
2026-05-07 15:25 39.37526 8.92111 15090 ft 377 kts 355°
2026-05-07 15:25 39.40166 8.91981 15709 ft 382 kts
2026-05-07 15:25 39.42818 8.92388 16317 ft 387 kts 12°
2026-05-07 15:25 39.45363 8.93443 16916 ft 392 kts 23°
2026-05-07 15:26 39.47791 8.95072 17542 ft 395 kts 28°
2026-05-07 15:26 39.50204 8.96797 18185 ft 398 kts 28°
2026-05-07 15:26 39.52638 8.98537 18710 ft 402 kts 28°
2026-05-07 15:26 39.55101 9.00295 19223 ft 405 kts 28°
2026-05-07 15:27 39.57581 9.02064 19729 ft 409 kts 28°
2026-05-07 15:27 39.60086 9.03851 20256 ft 413 kts 28°
2026-05-07 15:27 39.62617 9.05658 20760 ft 417 kts 27°
2026-05-07 15:27 39.65274 9.07206 21253 ft 420 kts 17°
2026-05-07 15:28 39.68092 9.08244 21757 ft 423 kts 13°
2026-05-07 15:28 39.70958 9.09197 22248 ft 427 kts 12°
2026-05-07 15:28 39.73843 9.10160 22774 ft 430 kts 12°
2026-05-07 15:28 39.76747 9.11133 23273 ft 433 kts 12°
2026-05-07 15:29 39.79679 9.12120 23703 ft 436 kts 12°
2026-05-07 15:29 39.82624 9.13151 24078 ft 441 kts 15°
2026-05-07 15:29 39.85487 9.14643 24444 ft 447 kts 24°
2026-05-07 15:29 39.88173 9.16726 24786 ft 453 kts 34°
2026-05-07 15:30 39.90654 9.19278 25145 ft 457 kts 38°
2026-05-07 15:30 39.93116 9.21900 25495 ft 459 kts 38°
2026-05-07 15:30 39.95602 9.24553 25833 ft 463 kts 38°
2026-05-07 15:30 39.98106 9.27228 26142 ft 467 kts 38°
2026-05-07 15:31 40.00633 9.29926 26482 ft 470 kts 37°
2026-05-07 15:31 40.03170 9.32635 26813 ft 473 kts 37°
2026-05-07 15:31 40.05722 9.35367 27093 ft 478 kts 38°
2026-05-07 15:31 40.08298 9.38136 27412 ft 481 kts 37°
2026-05-07 15:32 40.10886 9.40918 27753 ft 484 kts 37°
2026-05-07 15:32 40.13492 9.43718 28052 ft 487 kts 37°
2026-05-07 15:32 40.16083 9.46505 28307 ft 490 kts 37°
2026-05-07 15:32 40.18720 9.49344 28636 ft 492 kts 37°
2026-05-07 15:33 40.21368 9.52195 28997 ft 494 kts 37°
2026-05-07 15:33 40.24030 9.55062 29289 ft 497 kts 37°
2026-05-07 15:33 40.26709 9.57949 29528 ft 500 kts 37°
2026-05-07 15:33 40.29401 9.60857 29806 ft 503 kts 37°
2026-05-07 15:34 40.32107 9.63786 30045 ft 505 kts 37°
2026-05-07 15:34 40.34825 9.66737 30236 ft 508 kts 37°
2026-05-07 15:34 40.37547 9.69697 30426 ft 510 kts 37°
2026-05-07 15:34 40.40291 9.72677 30610 ft 513 kts 37°
2026-05-07 15:35 40.43046 9.75671 30816 ft 514 kts 37°
2026-05-07 15:35 40.45804 9.78669 31080 ft 514 kts 37°
2026-05-07 15:35 40.47626 9.80653 31245 ft 515 kts 37°
2026-05-07 15:35 40.51313 9.84668 31600 ft 515 kts 37°
2026-05-07 15:36 40.54070 9.87673 31873 ft 515 kts 37°
2026-05-07 15:36 40.56797 9.90651 31960 ft 511 kts 37°
2026-05-07 15:36 40.62215 9.96581 31967 ft 504 kts 37°
2026-05-07 15:37 40.66726 10.01533 31972 ft 504 kts 37°
2026-05-07 15:37 40.72099 10.07449 31970 ft 503 kts 37°
2026-05-07 15:38 40.77479 10.13369 31971 ft 503 kts 37°
2026-05-07 15:38 40.82853 10.19294 31973 ft 504 kts 37°
2026-05-07 15:39 40.88228 10.25240 31974 ft 503 kts 37°
2026-05-07 15:39 40.93552 10.31137 31992 ft 503 kts 37°
2026-05-07 15:40 40.98872 10.37139 31990 ft 504 kts 41°
2026-05-07 15:40 41.03710 10.43879 31988 ft 505 kts 44°
2026-05-07 15:41 41.08518 10.50656 32009 ft 505 kts 44°
2026-05-07 15:41 41.13322 10.57451 31979 ft 505 kts 44°
2026-05-07 15:42 41.18118 10.64267 31944 ft 505 kts 45°
2026-05-07 15:42 41.20508 10.67674 31503 ft 504 kts 45°
2026-05-07 15:42 41.22896 10.71079 30753 ft 503 kts 45°
2026-05-07 15:43 41.25273 10.74469 30074 ft 501 kts 45°
2026-05-07 15:43 41.27645 10.77851 29347 ft 498 kts 45°
2026-05-07 15:43 41.29998 10.81211 28662 ft 494 kts 44°
2026-05-07 15:43 41.32330 10.84546 27990 ft 491 kts 44°
2026-05-07 15:44 41.34642 10.87858 27331 ft 487 kts 44°
2026-05-07 15:44 41.36937 10.91141 26678 ft 483 kts 44°
2026-05-07 15:44 41.39215 10.94408 26076 ft 478 kts 44°
2026-05-07 15:44 41.41435 10.97605 25935 ft 462 kts 44°
2026-05-07 15:45 41.43590 11.00716 25600 ft 453 kts 44°
2026-05-07 15:45 41.45695 11.03801 25175 ft 448 kts 47°
2026-05-07 15:45 41.47516 11.07162 24726 ft 446 kts 56°
2026-05-07 15:45 41.48935 11.10825 24271 ft 444 kts 65°
2026-05-07 15:46 41.51084 11.18415 23387 ft 436 kts 67°
2026-05-07 15:46 41.52145 11.22187 22880 ft 432 kts 68°
2026-05-07 15:46 41.53195 11.25921 22397 ft 428 kts 68°
2026-05-07 15:47 41.54235 11.29628 21926 ft 425 kts 68°
2026-05-07 15:47 41.55264 11.33305 21451 ft 421 kts 68°
2026-05-07 15:47 41.56300 11.36935 20985 ft 417 kts 65°
2026-05-07 15:47 41.57679 11.40293 20648 ft 407 kts 53°
2026-05-07 15:48 41.59428 11.43183 20391 ft 396 kts 43°
2026-05-07 15:48 41.61479 11.45606 19648 ft 397 kts 33°
2026-05-07 15:48 41.63780 11.47718 18923 ft 403 kts 31°
2026-05-07 15:48 41.66100 11.49834 18394 ft 403 kts 32°
2026-05-07 15:49 41.68397 11.51946 17736 ft 399 kts 32°
2026-05-07 15:49 41.70670 11.54047 17015 ft 394 kts 32°
2026-05-07 15:49 41.72910 11.56120 16341 ft 389 kts 32°
2026-05-07 15:49 41.75124 11.58166 15690 ft 384 kts 33°
2026-05-07 15:50 41.77307 11.60185 14982 ft 377 kts 33°
2026-05-07 15:50 41.79450 11.62169 14173 ft 372 kts 33°
2026-05-07 15:50 41.81561 11.64128 13354 ft 366 kts 33°
2026-05-07 15:50 41.83612 11.66032 12473 ft 361 kts 33°
2026-05-07 15:51 41.85662 11.67932 11616 ft 355 kts 34°
2026-05-07 15:51 41.87677 11.69802 10795 ft 349 kts 34°
2026-05-07 15:51 41.89636 11.71620 10387 ft 332 kts 34°
2026-05-07 15:51 41.91498 11.73350 9903 ft 319 kts 34°
2026-05-07 15:52 41.93264 11.74994 9608 ft 301 kts 34°
2026-05-07 15:52 41.94964 11.76579 9037 ft 295 kts 34°
2026-05-07 15:52 41.96633 11.78141 8398 ft 291 kts 34°
2026-05-07 15:52 41.98285 11.79687 7755 ft 288 kts 35°
2026-05-07 15:53 41.99914 11.81209 7140 ft 283 kts 35°
2026-05-07 15:53 42.01499 11.82690 6852 ft 267 kts 34°
2026-05-07 15:53 42.02982 11.84073 6596 ft 252 kts 34°
2026-05-07 15:53 42.04391 11.85387 6396 ft 242 kts 34°
2026-05-07 15:54 42.05769 11.86672 6098 ft 240 kts 34°
2026-05-07 15:54 42.07215 11.87766 5805 ft 237 kts 28°
2026-05-07 15:54 42.08429 11.89195 5517 ft 232 kts 60°
2026-05-07 15:54 42.08966 11.91216 5200 ft 230 kts 76°
2026-05-07 15:55 42.09383 11.93251 4954 ft 227 kts 74°
2026-05-07 15:55 42.09823 11.95249 4823 ft 218 kts 73°
2026-05-07 15:55 42.10264 11.97170 4646 ft 212 kts 73°
2026-05-07 15:55 42.10699 11.99042 4457 ft 207 kts 73°
2026-05-07 15:56 42.11120 12.00877 4303 ft 203 kts 73°
2026-05-07 15:56 42.11387 12.02722 4163 ft 201 kts 92°
2026-05-07 15:56 42.11111 12.04554 3959 ft 201 kts 110°
2026-05-07 15:56 42.10396 12.06166 3725 ft 202 kts 131°
2026-05-07 15:57 42.09446 12.07563 3538 ft 202 kts 132°
2026-05-07 15:57 42.08475 12.08947 3339 ft 205 kts 132°
2026-05-07 15:57 42.07501 12.10338 3212 ft 205 kts 132°
2026-05-07 15:57 42.06524 12.11753 3145 ft 208 kts 132°
2026-05-07 15:58 42.05555 12.13177 2976 ft 205 kts 131°
2026-05-07 15:58 42.04597 12.14590 2800 ft 204 kts 132°
2026-05-07 15:58 42.03642 12.15990 2657 ft 202 kts 132°
2026-05-07 15:58 42.02693 12.17384 2606 ft 201 kts 133°
2026-05-07 15:59 42.01685 12.18689 2605 ft 201 kts 146°
2026-05-07 15:59 42.00435 12.19513 2528 ft 201 kts 162°
2026-05-07 15:59 41.99091 12.20077 2510 ft 204 kts 164°
2026-05-07 15:59 41.97762 12.20623 2526 ft 191 kts 163°
2026-05-07 16:00 41.96530 12.21142 2420 ft 182 kts 163°
2026-05-07 16:00 41.95348 12.21639 2220 ft 175 kts 162°
2026-05-07 16:00 41.94194 12.22131 1986 ft 172 kts 162°
2026-05-07 16:00 41.93073 12.22606 1709 ft 165 kts 164°
2026-05-07 16:01 41.91979 12.23069 1518 ft 166 kts 164°
2026-05-07 16:01 41.90879 12.23531 1345 ft 167 kts 164°
2026-05-07 16:01 41.89798 12.23981 1107 ft 160 kts 166°
2026-05-07 16:01 41.88734 12.24436 924 ft 159 kts 167°
2026-05-07 16:02 41.87680 12.24871 665 ft 156 kts 167°
2026-05-07 16:02 41.86655 12.25298 432 ft 152 kts 168°
2026-05-07 16:02 41.85636 12.25724 268 ft 155 kts 167°
2026-05-07 16:02 41.84613 12.26147 86 ft 155 kts 166°
2026-05-07 16:03 41.83609 12.26562 18 ft 137 kts 162°
2026-05-07 16:03 41.82804 12.26903 16 ft 109 kts 163°
2026-05-07 16:03 41.82141 12.27182 14 ft 92 kts 163°
2026-05-07 16:03 41.81658 12.27382 16 ft 42 kts 163°
2026-05-07 16:04 41.81427 12.27399 16 ft 24 kts 211°
2026-05-07 16:04 41.81332 12.27248 15 ft 18 kts 222°
2026-05-07 16:04 41.81213 12.27246 15 ft 18 kts 161°
2026-05-07 16:04 41.81100 12.27293 15 ft 16 kts 162°
2026-05-07 16:05 41.80998 12.27335 15 ft 15 kts 163°
2026-05-07 16:05 41.80881 12.27344 15 ft 18 kts 191°
2026-05-07 16:05 41.80760 12.27317 15 ft 19 kts 190°
2026-05-07 16:05 41.80653 12.27230 15 ft 20 kts 246°
2026-05-07 16:06 41.80608 12.27050 15 ft 21 kts 251°
2026-05-07 16:06 41.80557 12.26858 17 ft 23 kts 249°
2026-05-07 16:06 41.80500 12.26657 17 ft 24 kts 249°
2026-05-07 16:06 41.80442 12.26445 16 ft 25 kts 250°
2026-05-07 16:07 41.80383 12.26230 17 ft 23 kts 250°
2026-05-07 16:07 41.80313 12.26090 15 ft 17 kts 208°
2026-05-07 16:07 41.80199 12.26023 17 ft 18 kts 204°
2026-05-07 16:07 41.80075 12.25947 16 ft 21 kts 204°
2026-05-07 16:08 41.79941 12.25866 15 ft 22 kts 206°
2026-05-07 16:08 41.79834 12.25787 15 ft 13 kts 208°
2026-05-07 16:08 41.79746 12.25729 17 ft 15 kts 205°
2026-05-07 16:08 41.79713 12.25683 15 ft 6 kts 274°
2026-05-07 16:09 41.79725 12.25647 15 ft 2 kts 296°
2026-05-07 16:09 41.79727 12.25643 15 ft 0 kts 296°